Wind_Speed
16 16 18 16 15 14 12 12 12 12 12 12 12 12 12 12 11 12 11 7 9 15 26 27 21 22 21 16 7 11 10 1 5 3 3 4 7 8 9 13 9 9 4 3 3 6 6 19 6 15 8 6 16 27
15 15 16 16 15 14 13 12 12 12 11 11 11 11 11 12 12 12 16 2 11 15 19 24 26 23 20 19 20 16 12 12 4 2 5 5 6 6 9 13 8 6 13 5 5 5 8 7 14 24 23 24 38 37
14 17 17 17 15 13 13 13 13 12 11 10 11 12 13 13 12 12 16 14 12 15 24 24 23 21 23 27 25 21 19 18 13 8 3 3 6 6 7 8 12 14 12 10 5 13 14 28 23 15 17 17 55 48
17 16 15 15 14 13 13 14 14 13 11 11 12 14 15 15 15 15 17 12 12 10 5 11 9 16 17 19 23 31 32 26 6 9 5 3 5 11 7 13 12 10 7 13 7 12 17 31 24 16 7 4 51 33
16 14 13 13 13 13 13 14 13 11 12 13 16 17 17 17 16 16 19 20 16 16 5 17 29 35 18 28 32 24 25 24 17 7 3 4 5 7 10 12 13 13 5 7 13 19 17 23 27 16 14 12 32 18
16 15 14 15 13 13 13 11 11 12 13 14 16 17 17 15 15 13 6 3 15 26 8 4 12 25 34 25 26 31 35 27 23 12 5 6 12 3 5 7 6 11 12 19 3 31 38 36 19 25 17 12 11 8
15 16 13 15 13 13 11 11 12 13 14 15 16 18 18 15 14 13 5 3 3 1 3 6 7 7 10 9 13 16 25 23 16 10 9 6 9 3 4 11 18 32 31 21 21 9 24 24 23 29 20 17 16 14
15 14 13 14 13 13 12 12 13 13 15 14 18 22 20 15 17 22 19 23 12 9 5 3 5 7 7 5 9 17 16 19 15 9 7 7 12 7 6 13 31 24 20 17 20 20 19 11 9 7 13 9 14 5
15 14 12 12 12 13 12 13 13 13 12 17 18 15 12 8 5 7 9 10 18 15 4 6 3 4 5 9 7 9 12 3 7 6 6 10 4 7 19 22 24 13 16 15 17 16 16 18 15 13 8 6 11 19
16 13 12 11 11 12 13 13 12 11 11 11 9 3 3 4 9 9 3 6 12 9 9 5 9 6 4 6 10 10 9 3 5 9 15 4 7 39 37 41 30 14 12 9 9 15 19 20 19 17 13 10 5 2
15 12 13 11 10 12 11 11 10 8 7 6 4 4 6 10 4 5 5 7 8 5 9 9 17 8 8 4 5 9 2 4 4 5 8 6 5 10 31 36 32 20 16 11 9 11 14 18 18 16 14 12 7 5
14 13 14 10 8 10 9 10 11 4 6 10 13 18 11 5 6 4 4 5 6 5 10 5 7 12 6 5 3 4 3 3 4 16 5 3 6 29 35 31 28 20 13 11 10 14 17 17 18 19 16 13 10 7
14 14 10 8 7 6 9 11 12 9 13 13 3 2 5 6 5 5 6 4 3 4 10 8 4 6 6 6 3 2 5 5 3 3 3 4 7 17 24 28 26 21 13 12 10 9 12 15 14 14 15 14 11 10
14 12 8 7 5 9 11 8 6 9 7 4 3 4 3 5 7 6 8 8 5 12 15 17 4 6 4 3 2 4 4 4 4 3 3 3 6 4 6 14 20 13 10 8 9 9 8 12 9 11 11 13 14 20
12 9 7 8 9 8 3 8 10 9 4 4 4 4 7 15 23 20 23 3 18 13 14 7 3 7 3 2 3 4 4 4 3 2 2 2 6 4 2 4 4 5 7 5 7 7 4 6 5 4 5 5 6 17
6 2 1 2 2 4 9 13 15 8 4 5 7 5 13 13 11 15 21 19 23 22 10 2 3 2 4 2 3 5 4 3 2 4 8 9 7 6 10 11 9 7 8 9 11 5 4 8 8 6 5 2 5 11
3 2 5 5 7 12 16 15 9 6 6 5 7 14 21 16 13 13 16 17 22 15 3 3 1 5 3 4 5 2 4 3 3 2 6 6 3 5 6 12 8 11 10 3 7 5 4 3 5 11 11 5 3 10
7 7 7 6 14 16 9 7 5 5 7 11 6 11 15 18 21 23 20 15 9 10 12 5 5 3 1 4 1 4 5 5 4 4 2 6 10 8 10 13 12 11 15 13 18 19 16 13 9 8 4 4 6 4
7 11 12 8 12 12 4 4 6 5 10 10 11 13 11 12 19 18 17 13 10 8 10 8 4 2 2 5 5 6 8 10 4 2 2 5 6 14 20 19 18 20 17 18 22 21 20 23 19 10 7 5 5 8
9 8 8 6 8 4 4 5 5 6 5 4 8 7 8 8 11 9 10 8 5 3 5 4 2 4 8 15 19 6 6 10 4 5 3 9 10 16 21 21 15 22 20 25 24 20 17 18 23 23 19 15 10 9
5 2 4 5 6 6 5 4 5 5 7 6 8 6 5 7 6 3 3 4 3 3 3 8 11 12 13 13 11 11 10 7 8 10 14 17 8 6 10 16 15 13 17 20 23 18 18 20 16 11 16 17 14 13
6 7 4 6 4 4 6 8 6 6 5 7 8 4 5 3 3 3 3 2 4 5 7 16 21 16 15 12 10 4 7 2 3 14 12 13 5 7 10 9 9 12 13 11 10 13 13 12 10 9 13 15 11 14
2 2 5 4 4 4 6 5 4 3 3 3 4 3 3 2 1 4 3 5 6 8 6 14 17 17 17 15 12 13 9 1 4 13 10 4 3 5 5 8 6 8 9 7 8 8 6 5 9 10 8 11 12 10
5 3 3 3 6 4 4 3 4 4 4 3 2 3 1 1 2 2 3 3 7 13 17 16 14 15 14 12 10 10 15 12 8 11 7 3 7 5 2 3 4 1 6 5 4 6 2 6 10 4 4 7 11 9
4 4 3 4 4 4 3 2 3 3 3 3 2 1 2 3 1 2 3 5 19 23 19 16 10 9 12 14 10 8 13 13 15 16 13 9 4 3 1 1 2 2 1 5 6 2 5 9 9 5 2 2 5 4
3 3 5 3 3 2 3 3 3 3 3 3 1 1 3 2 3 4 3 9 18 24 25 19 9 7 3 5 8 10 10 9 11 10 10 5 3 1 1 2 10 13 11 5 2 1 3 4 7 9 7 3 3 3
3 4 4 3 4 5 5 7 8 3 3 3 2 2 3 4 3 4 10 16 19 25 21 11 5 4 1 4 11 12 10 13 11 5 5 8 1 2 4 7 6 5 4 4 3 3 5 7 7 5 4 5 4 6
4 3 2 5 5 4 3 3 3 2 3 6 5 4 2 3 4 4 7 11 23 21 14 12 9 10 11 11 11 11 12 12 4 6 16 17 15 16 11 8 5 3 1 2 4 7 7 3 5 6 6 6 7 7
5 4 4 4 3 4 3 2 4 5 9 8 1 2 3 5 9 10 8 5 22 23 23 16 12 8 8 11 10 10 10 6 5 5 9 10 4 4 4 4 7 9 5 3 8 14 16 15 14 12 12 12 12 10
1 6 4 2 3 2 4 2 5 10 9 5 2 2 3 4 6 8 4 6 6 11 21 22 19 15 9 7 9 12 10 9 8 4 5 3 1 7 13 12 9 7 9 12 15 18 19 20 19 17 18 18 18 19
2 3 1 1 1 4 6 6 4 7 9 7 8 7 8 6 4 7 7 13 13 10 14 18 21 19 13 13 11 10 9 9 7 5 8 11 12 12 12 12 9 7 10 12 15 15 10 12 13 13 16 19 17 19
4 1 1 2 3 4 3 6 5 7 13 13 13 11 14 6 8 5 11 8 15 16 14 17 24 30 29 23 20 21 21 20 18 17 19 19 16 13 11 11 11 13 16 17 18 21 21 18 17 16 16 18 23 26
6 5 3 1 1 3 5 3 7 3 5 3 2 6 9 7 11 16 16 22 9 15 16 17 17 20 22 24 28 31 29 28 27 25 22 20 19 21 20 21 21 21 21 23 24 26 22 20 15 11 13 14 15 16
Wind_Direction
306 305 302 301 298 295 299 304 305 307 314 319 319 318 317 314 308 304 287 242 299 290 283 279 280 287 295 298 296 313 335 320 314 264 252 247 259 261 242 250 210 215 195 232 212 218 239 211 171 171 191 96 171 223
301 298 295 299 298 291 292 297 300 301 309 311 313 314 313 313 306 297 293 335 307 279 266 275 274 273 258 268 291 280 255 305 46 326 19 316 276 294 291 242 257 240 221 199 205 209 277 261 168 203 190 207 198 201
302 301 287 294 295 286 290 293 295 301 303 303 307 312 313 309 303 287 284 283 284 296 292 268 265 273 252 261 252 257 260 274 230 216 117 303 279 332 286 251 229 252 254 245 265 270 267 284 291 303 6 199 183 204
304 300 285 289 292 287 289 292 293 296 298 298 300 305 305 305 300 288 278 275 268 279 274 282 273 270 266 252 254 240 238 249 261 172 149 214 277 322 310 297 310 235 232 229 234 258 276 274 284 288 302 152 180 182
303 291 287 290 289 287 293 294 293 292 293 296 299 301 300 299 301 287 287 278 241 238 276 285 287 282 275 253 241 238 237 239 205 166 169 225 273 314 293 278 256 267 289 249 231 234 230 253 259 273 330 292 111 108
301 296 290 291 286 289 292 294 294 297 298 303 304 304 300 292 287 294 310 248 240 239 248 295 293 284 282 262 248 250 224 233 212 199 176 215 253 304 294 288 280 325 315 9 261 218 230 249 257 264 279 288 267 135
295 292 282 289 288 287 286 289 295 299 302 304 301 304 304 287 271 240 222 198 88 150 273 295 282 269 286 272 235 206 204 217 204 188 201 221 211 188 266 260 297 308 317 341 10 41 204 227 248 250 262 276 267 273
290 289 282 289 283 285 287 290 296 303 308 304 302 300 298 286 277 261 262 237 240 261 220 253 265 290 304 209 187 190 200 196 204 209 192 184 169 160 258 249 256 268 307 359 11 11 0 2 9 151 227 278 260 230
299 294 282 285 281 284 289 293 302 311 311 312 315 310 293 265 239 266 249 223 226 214 224 222 235 284 274 200 176 206 186 159 204 214 209 175 141 220 244 250 270 282 314 330 354 356 351 360 6 20 23 22 54 73
300 288 281 284 278 283 290 296 307 317 320 320 319 329 272 283 253 269 234 178 193 215 228 250 225 239 289 213 180 179 194 217 198 204 158 177 233 234 242 254 277 283 308 316 340 347 338 338 345 343 351 345 345 96
304 284 281 285 274 280 293 298 312 325 343 327 305 254 278 314 286 233 227 197 182 227 218 231 219 223 237 237 212 213 191 212 215 163 185 201 234 238 253 259 255 270 284 298 299 312 311 310 310 314 315 315 342 348
296 290 288 277 267 289 298 302 321 288 292 295 283 275 280 248 229 244 223 199 212 238 173 193 205 203 244 232 268 175 249 246 267 148 218 229 210 217 214 219 234 238 251 292 295 299 297 297 299 302 304 299 288 337
294 296 285 260 270 297 298 300 305 294 312 312 280 262 214 221 237 225 223 219 220 168 190 177 188 198 213 238 225 239 252 234 301 199 236 220 214 194 206 203 212 217 236 258 307 297 289 287 296 283 287 291 291 281
301 298 273 259 259 283 297 304 302 306 320 258 232 256 248 230 217 204 240 264 210 209 207 183 155 185 203 200 286 255 245 264 199 229 253 342 342 41 110 181 199 200 219 238 299 289 272 306 319 282 307 271 271 250
293 302 279 245 247 276 289 313 321 322 233 245 224 240 237 255 298 312 350 268 8 211 167 158 195 157 188 239 212 290 293 287 288 219 198 300 251 244 225 149 159 234 243 268 289 261 245 283 310 293 256 258 297 239
299 293 110 37 162 252 302 312 315 296 221 230 228 252 267 283 293 336 342 341 349 346 315 82 97 181 201 209 215 237 261 257 20 322 349 349 262 220 195 172 185 206 214 223 256 282 281 270 256 265 227 166 146 170
279 239 248 255 279 300 305 283 273 219 229 225 237 240 254 284 284 299 318 314 318 323 322 116 203 242 164 209 191 241 294 316 235 109 68 235 16 83 122 161 157 197 176 202 206 164 188 160 232 236 247 241 145 146
246 250 260 298 314 328 300 216 229 237 242 240 244 249 247 252 264 273 287 300 330 342 326 0 289 283 354 272 159 137 329 358 123 110 12 31 41 59 69 110 86 116 143 111 108 99 95 95 110 106 115 203 225 178
271 255 257 291 303 319 270 228 220 260 246 245 249 251 243 262 278 280 279 288 286 254 289 285 252 282 8 348 8 93 99 57 359 12 355 357 51 15 62 66 71 74 100 143 96 84 77 69 71 86 113 98 186 201
301 270 238 236 277 274 263 239 226 258 272 291 279 264 267 262 280 279 281 279 286 229 235 235 309 71 16 357 8 46 71 53 75 98 268 343 43 51 58 68 65 58 74 65 72 75 88 81 60 63 80 90 100 107
342 324 226 255 273 226 266 285 254 251 280 269 284 286 272 274 271 259 266 222 232 238 264 267 295 329 337 323 10 47 42 96 111 199 295 332 69 67 65 68 60 62 73 69 68 67 68 70 61 57 71 59 74 94
294 239 283 259 244 245 259 241 246 283 267 275 294 240 253 250 226 216 194 191 256 250 247 277 289 297 302 293 278 302 31 100 107 261 267 312 358 90 80 84 83 73 63 78 72 65 59 68 72 82 96 73 65 95
306 282 253 237 241 242 262 244 257 253 266 268 269 248 224 235 150 175 235 228 244 246 268 313 301 296 292 286 272 239 221 350 292 218 243 273 171 109 83 89 68 90 89 57 40 54 63 51 45 62 89 108 89 76
307 256 252 236 219 265 274 235 240 259 271 252 245 263 216 105 160 249 269 265 282 299 300 303 303 293 284 273 260 237 214 199 214 231 288 294 217 156 73 59 54 99 93 98 57 41 38 25 15 22 65 109 118 84
274 245 222 260 245 249 255 255 235 234 254 237 250 276 125 184 278 340 314 288 331 341 343 343 317 286 269 268 253 218 195 204 205 222 254 260 233 153 13 316 320 38 265 96 88 100 14 357 360 22 27 79 143 168
256 232 193 300 337 269 327 284 296 322 294 272 262 203 153 23 17 313 267 316 333 337 335 333 325 321 310 226 193 185 182 200 203 217 236 252 243 312 360 341 113 91 89 85 94 351 358 331 325 332 317 281 194 218
261 256 220 266 274 276 276 269 262 263 270 285 350 70 38 26 326 284 303 332 334 343 1 354 354 345 25 118 167 161 173 177 177 185 259 210 145 211 146 119 111 111 67 36 34 322 304 307 309 303 256 258 212 230
275 283 269 284 287 251 269 277 265 282 343 15 5 49 112 230 242 255 309 2 14 29 29 32 45 66 97 108 137 156 164 162 159 122 132 128 108 90 93 87 68 16 6 15 337 320 316 357 102 131 157 168 173 191
257 214 274 282 258 255 250 269 300 346 15 57 145 166 241 249 307 331 349 47 43 43 39 47 62 94 93 89 95 119 128 133 183 134 125 109 110 87 91 78 89 111 115 82 62 72 73 75 83 97 99 94 96 100
198 182 192 243 289 342 11 358 334 10 39 85 290 324 308 312 22 24 56 93 76 55 42 44 49 51 67 124 128 126 111 112 131 151 175 175 136 125 135 139 154 130 115 118 98 84 73 65 65 69 74 80 84 87
19 329 325 230 302 8 10 354 26 41 35 25 12 329 337 330 118 133 118 80 86 78 53 44 39 43 72 99 118 122 120 115 114 108 124 126 132 134 140 150 152 147 133 114 109 107 107 110 83 83 78 74 77 84
315 313 4 353 75 42 73 8 37 45 38 11 10 11 21 19 51 99 182 118 82 85 80 73 70 71 73 86 88 94 95 99 105 111 112 107 107 119 132 125 115 112 115 120 122 116 117 111 96 90 95 101 100 100
289 282 195 69 122 27 7 23 34 33 64 98 253 299 332 14 33 41 54 48 100 66 76 76 77 79 80 82 92 93 92 91 91 90 93 96 99 98 101 119 126 118 111 111 110 105 97 102 98 90 83 89 95 97
Height
1521 1521 1520 1518 1517 1515 1514 1513 1512 1511 1510 1510 1508 1508 1507 1506 1504 1503 1503 1503 1506 1503 1495 1494 1495 1495 1494 1493 1492 1490 1491 1485 1481 1479 1472 1466 1456 1445 1435 1425 1425 1432 1442 1439 1435 1437 1445 1401 1410 1418 1423 1424 1429 1424
1517 1516 1515 1514 1513 1512 1511 1510 1509 1508 1507 1506 1506 1504 1502 1502 1503 1501 1500 1500 1501 1499 1492 1488 1488 1489 1490 1491 1493 1491 1492 1489 1490 1489 1486 1481 1456 1440 1430 1430 1413 1430 1417 1428 1423 1423 1396 1393 1401 1403 1404 1418 1424 1427
1513 1512 1511 1510 1508 1508 1508 1507 1506 1505 1504 1503 1503 1502 1502 1499 1499 1499 1497 1496 1496 1493 1487 1482 1479 1479 1483 1484 1486 1488 1488 1489 1487 1488 1492 1490 1473 1452 1439 1418 1414 1407 1407 1413 1416 1401 1398 1393 1395 1399 1401 1403 1416 1413
1509 1507 1506 1505 1505 1504 1504 1503 1503 1502 1500 1500 1499 1498 1498 1496 1495 1495 1493 1493 1495 1494 1488 1475 1474 1474 1475 1476 1477 1478 1481 1484 1485 1486 1488 1490 1485 1469 1453 1441 1423 1402 1401 1403 1403 1399 1397 1392 1395 1396 1404 1405 1407 1415
1505 1503 1502 1501 1501 1501 1500 1500 1499 1498 1497 1496 1496 1494 1493 1492 1491 1489 1487 1486 1489 1493 1482 1473 1469 1463 1463 1465 1466 1468 1472 1476 1477 1483 1484 1484 1479 1475 1456 1435 1413 1402 1400 1402 1393 1389 1392 1388 1394 1395 1400 1399 1402 1407
1501 1500 1500 1499 1497 1497 1497 1496 1496 1495 1494 1492 1491 1489 1488 1487 1487 1486 1483 1481 1481 1484 1482 1473 1460 1453 1453 1452 1455 1457 1462 1468 1469 1472 1477 1476 1475 1480 1469 1427 1398 1399 1395 1390 1386 1383 1386 1383 1392 1394 1398 1399 1401 1404
1496 1496 1495 1494 1495 1494 1492 1493 1492 1491 1490 1488 1486 1484 1482 1482 1482 1482 1481 1479 1479 1480 1480 1474 1462 1450 1447 1446 1447 1450 1455 1459 1462 1467 1470 1471 1472 1473 1467 1444 1408 1400 1395 1390 1380 1377 1381 1386 1388 1390 1394 1396 1398 1399
1491 1491 1490 1490 1490 1490 1489 1490 1488 1487 1486 1483 1481 1479 1476 1476 1474 1472 1471 1475 1477 1479 1479 1474 1462 1451 1444 1442 1444 1447 1451 1455 1456 1457 1461 1463 1465 1465 1455 1423 1413 1402 1395 1386 1381 1382 1384 1384 1385 1387 1392 1395 1395 1397
1488 1486 1486 1486 1486 1486 1486 1486 1484 1483 1481 1479 1475 1472 1471 1471 1471 1468 1467 1470 1471 1477 1471 1466 1457 1449 1443 1440 1443 1446 1446 1449 1450 1449 1447 1454 1450 1451 1414 1417 1405 1398 1395 1391 1387 1386 1386 1386 1387 1388 1390 1393 1395 1405
1484 1482 1482 1482 1482 1483 1483 1482 1481 1480 1478 1475 1473 1472 1469 1468 1467 1468 1465 1467 1468 1465 1462 1454 1449 1445 1444 1434 1437 1440 1439 1435 1435 1435 1435 1435 1432 1415 1411 1410 1403 1397 1395 1392 1391 1389 1388 1388 1389 1390 1391 1394 1396 1400
1480 1479 1479 1478 1478 1479 1480 1479 1478 1477 1476 1474 1472 1470 1468 1468 1466 1464 1461 1461 1459 1457 1450 1441 1438 1437 1436 1433 1427 1428 1425 1419 1415 1413 1421 1413 1401 1381 1387 1392 1393 1394 1392 1390 1390 1390 1389 1388 1388 1389 1390 1391 1391 1396
1476 1475 1475 1475 1476 1476 1476 1476 1475 1475 1475 1473 1472 1468 1466 1465 1463 1460 1451 1447 1445 1435 1431 1430 1430 1430 1430 1428 1425 1423 1420 1410 1401 1402 1401 1382 1371 1373 1382 1388 1390 1389 1388 1387 1388 1387 1387 1387 1385 1385 1387 1389 1390 1391
1472 1471 1471 1472 1472 1473 1473 1473 1473 1472 1471 1468 1466 1464 1462 1460 1456 1450 1437 1428 1426 1424 1424 1423 1425 1425 1426 1424 1426 1425 1414 1401 1391 1391 1382 1370 1363 1367 1374 1379 1381 1383 1384 1383 1384 1385 1385 1385 1384 1384 1383 1385 1386 1389
1469 1468 1468 1469 1470 1470 1470 1470 1470 1469 1469 1466 1464 1460 1455 1443 1433 1427 1423 1417 1415 1413 1415 1416 1420 1422 1422 1422 1419 1416 1403 1397 1391 1391 1376 1364 1358 1362 1369 1371 1375 1377 1380 1380 1381 1382 1381 1381 1381 1381 1382 1382 1384 1385
1465 1465 1465 1465 1466 1467 1468 1468 1467 1466 1466 1463 1461 1455 1442 1431 1425 1424 1417 1411 1411 1407 1411 1416 1418 1420 1420 1420 1417 1410 1399 1385 1373 1377 1375 1371 1371 1371 1368 1368 1370 1372 1373 1374 1378 1379 1379 1378 1379 1380 1380 1382 1380 1379
1462 1463 1463 1463 1463 1465 1465 1464 1462 1462 1460 1458 1452 1445 1436 1433 1425 1425 1421 1417 1414 1409 1409 1408 1411 1413 1413 1414 1413 1405 1395 1381 1380 1374 1372 1372 1376 1374 1373 1373 1374 1375 1376 1377 1376 1374 1375 1378 1380 1379 1381 1382 1381 1382
1461 1461 1462 1462 1462 1462 1461 1459 1458 1456 1453 1448 1440 1436 1436 1434 1430 1428 1426 1422 1419 1416 1410 1409 1414 1406 1402 1402 1400 1399 1393 1388 1383 1380 1378 1381 1380 1376 1375 1375 1376 1376 1379 1379 1378 1380 1382 1381 1381 1383 1385 1385 1385 1385
1460 1460 1460 1460 1459 1457 1454 1453 1453 1449 1443 1438 1436 1431 1430 1429 1426 1425 1423 1423 1422 1419 1415 1411 1409 1403 1403 1398 1391 1392 1389 1387 1385 1383 1382 1380 1381 1379 1380 1377 1377 1377 1379 1382 1378 1383 1381 1380 1381 1382 1384 1385 1386 1387
1457 1457 1457 1458 1457 1456 1453 1450 1449 1443 1435 1431 1428 1426 1425 1423 1420 1419 1419 1419 1418 1419 1418 1410 1404 1398 1398 1397 1392 1393 1391 1389 1388 1387 1383 1382 1378 1367 1374 1378 1378 1379 1381 1370 1374 1379 1384 1383 1385 1384 1385 1386 1386 1387
1454 1454 1454 1456 1455 1454 1450 1446 1444 1439 1432 1428 1425 1423 1421 1419 1417 1416 1416 1416 1416 1415 1413 1406 1400 1401 1401 1401 1398 1395 1393 1390 1389 1389 1384 1385 1384 1382 1384 1385 1385 1383 1379 1373 1374 1383 1385 1388 1388 1387 1387 1388 1388 1388
1453 1452 1452 1453 1452 1451 1448 1442 1438 1434 1429 1425 1423 1421 1418 1416 1415 1414 1413 1414 1414 1412 1408 1403 1401 1402 1401 1401 1401 1398 1398 1397 1394 1393 1393 1389 1393 1393 1392 1391 1390 1390 1390 1390 1390 1392 1393 1393 1395 1394 1392 1392 1391 1392
1451 1451 1450 1449 1449 1447 1443 1438 1435 1432 1430 1423 1421 1418 1416 1414 1413 1412 1412 1413 1411 1407 1406 1402 1400 1401 1400 1399 1400 1401 1401 1401 1400 1396 1395 1395 1396 1396 1395 1395 1396 1397 1397 1397 1397 1397 1397 1398 1398 1398 1398 1397 1398 1398
1450 1450 1449 1447 1446 1443 1439 1435 1433 1430 1427 1421 1418 1416 1413 1411 1411 1412 1411 1409 1406 1403 1402 1400 1397 1395 1395 1395 1396 1397 1399 1401 1401 1399 1399 1401 1401 1400 1399 1399 1399 1399 1400 1400 1400 1400 1400 1400 1400 1398 1399 1399 1399 1401
1449 1448 1446 1444 1442 1438 1435 1432 1430 1428 1424 1420 1416 1411 1409 1411 1412 1411 1408 1405 1402 1400 1397 1394 1393 1391 1389 1390 1392 1392 1394 1399 1400 1398 1397 1398 1399 1401 1400 1400 1400 1400 1401 1402 1401 1401 1401 1401 1401 1401 1400 1401 1401 1402
1451 1446 1445 1440 1437 1435 1431 1428 1426 1424 1419 1416 1411 1409 1411 1410 1410 1409 1408 1403 1398 1394 1392 1389 1388 1388 1386 1386 1387 1389 1392 1396 1399 1399 1397 1399 1400 1400 1400 1400 1400 1401 1401 1402 1402 1402 1401 1400 1399 1400 1400 1401 1401 1402
1447 1441 1440 1435 1434 1433 1430 1427 1423 1420 1417 1412 1408 1409 1410 1411 1412 1411 1407 1401 1398 1392 1388 1385 1384 1384 1383 1383 1384 1387 1391 1394 1396 1397 1398 1399 1399 1399 1399 1399 1399 1400 1401 1402 1402 1402 1401 1400 1399 1399 1399 1400 1399 1400
1444 1438 1436 1435 1434 1433 1430 1426 1424 1422 1418 1412 1408 1410 1413 1418 1418 1412 1407 1403 1398 1391 1386 1384 1382 1382 1382 1383 1385 1387 1389 1392 1394 1396 1397 1398 1396 1397 1398 1399 1400 1402 1403 1403 1402 1401 1400 1399 1398 1397 1399 1399 1398 1400
1438 1435 1435 1434 1432 1431 1429 1426 1423 1419 1416 1415 1411 1416 1423 1418 1415 1408 1406 1404 1398 1391 1388 1385 1383 1383 1383 1385 1386 1388 1390 1392 1395 1397 1395 1396 1398 1399 1401 1403 1403 1404 1404 1403 1403 1402 1400 1397 1398 1398 1400 1400 1400 1403
1435 1434 1432 1431 1430 1430 1427 1426 1422 1420 1421 1419 1415 1418 1416 1412 1409 1407 1406 1405 1401 1395 1392 1388 1387 1388 1388 1389 1390 1392 1393 1394 1395 1396 1397 1399 1400 1402 1403 1404 1405 1406 1406 1406 1405 1403 1402 1402 1401 1401 1401 1401 1401 1401
1430 1431 1431 1431 1429 1428 1427 1425 1424 1424 1423 1421 1417 1418 1416 1412 1411 1409 1406 1405 1403 1401 1399 1395 1392 1390 1389 1390 1391 1393 1394 1395 1397 1397 1398 1401 1402 1403 1405 1407 1408 1408 1408 1408 1407 1408 1409 1408 1407 1407 1406 1406 1406 1406
1431 1431 1430 1429 1429 1429 1427 1427 1427 1425 1424 1423 1421 1418 1416 1414 1412 1411 1410 1408 1407 1406 1405 1402 1397 1393 1391 1392 1394 1396 1397 1398 1399 1400 1401 1403 1404 1405 1406 1408 1410 1410 1409 1410 1411 1412 1413 1414 1415 1414 1412 1412 1412 1411
1431 1430 1431 1429 1429 1431 1429 1429 1428 1427 1426 1424 1423 1419 1417 1413 1412 1412 1413 1413 1412 1411 1411 1408 1406 1403 1401 1400 1400 1401 1401 1402 1403 1405 1405 1406 1407 1408 1409 1411 1412 1413 1414 1415 1416 1417 1417 1418 1419 1420 1420 1421 1420 1420
1431 1429 1430 1430 1431 1431 1431 1430 1431 1431 1431 1431 1428 1424 1424 1424 1422 1419 1417 1418 1417 1416 1415 1414 1413 1412 1412 1411 1411 1411 1412 1413 1414 1415 1415 1414 1414 1415 1416 1417 1418 1421 1421 1422 1422 1420 1419 1421 1424 1425 1426 1426 1426 1425